This is the latest recevied weather packets stored in our database for station/object NW5W-12. If no packets are shown the sender has not sent any weather packets the latest 10 day(s).
| Time | Temp. | Humidity | Pressure | Rain* | Wind** | Luminosity | Snow |
|---|---|---|---|---|---|---|---|
| 1787903640 | 20° C | 46% | 1022.2 hPa | 0 mm | - | - | - |
| 1787903340 | 20° C | 47% | 1022.2 hPa | 0 mm | - | - | - |
| 1787903040 | 20° C | 47% | 1022.2 hPa | 0 mm | - | - | - |
| 1787902740 | 20° C | 45% | 1022.2 hPa | 0 mm | - | - | - |
| 1787902440 | 20° C | 45% | 1022.2 hPa | 0 mm | - | - | - |
| 1787902139 | 20° C | 45% | 1022.3 hPa | 0 mm | - | - | - |
| 1787901839 | 20° C | 46% | 1022.3 hPa | 0 mm | - | - | - |
| 1787901540 | 20° C | 46% | 1022.3 hPa | 0 mm | - | - | - |
| 1787901240 | 20.56° C | 45% | 1022.2 hPa | 0 mm | - | - | - |
| 1787900940 | 20° C | 44% | 1022.3 hPa | 0 mm | - | - | - |
| 1787900640 | 20° C | 45% | 1022.3 hPa | 0 mm | - | - | - |
| 1787900340 | 19.44° C | 49% | 1022.4 hPa | 0 mm | - | - | - |
| 1787900040 | 18.89° C | 51% | 1022.4 hPa | 0 mm | - | - | - |
| 1787899740 | 18.33° C | 55% | 1022.4 hPa | 0 mm | - | - | - |
| 1787899440 | 18.33° C | 59% | 1022.5 hPa | 0 mm | - | - | - |
| 1787899140 | 18.89° C | 61% | 1022.6 hPa | 0 mm | - | - | - |
| 1787898840 | 18.89° C | 61% | 1022.8 hPa | 0 mm | - | - | - |
| 1787898540 | 18.89° C | 62% | 1022.7 hPa | 0 mm | - | - | - |
| 1787898239 | 19.44° C | 60% | 1022.8 hPa | 0 mm | - | - | - |
| 1787897939 | 19.44° C | 58% | 1022.9 hPa | 0 mm | - | - | - |
| 1787897639 | 20° C | 55% | 1023 hPa | 0 mm | - | - | - |
| 1787897340 | 20° C | 50% | 1023.2 hPa | 0 mm | - | - | - |
| 1787897040 | 20.56° C | 49% | 1023.1 hPa | 0 mm | - | - | - |
| 1787896740 | 20.56° C | 49% | 1023.3 hPa | 0 mm | - | - | - |
| 1787896440 | 20.56° C | 48% | 1023.4 hPa | 0 mm | - | - | - |
* Rain since midnight (hover to see other rain measurements)
** Current wind speed in m/s (hover to see current wind gust speed)